TimeCST,TemperatureF,Dew PointF,Humidity,Sea Level PressureIn,VisibilityMPH,Wind Direction,Wind SpeedMPH,Gust SpeedMPH,PrecipitationIn,Events,Conditions,WindDirDegrees,DateUTC
12:15 AM,32.0,26.6,80,29.93,10.0,South,5.8,-,N/A,,Clear,180,2014-01-12 06:15:00
12:35 AM,32.0,26.6,80,29.92,10.0,South,6.9,-,N/A,,Clear,170,2014-01-12 06:35:00
12:55 AM,32.0,28.4,87,29.91,10.0,South,6.9,-,N/A,,Clear,170,2014-01-12 06:55:00
1:15 AM,33.8,28.4,81,29.90,10.0,South,6.9,-,N/A,,Clear,170,2014-01-12 07:15:00
1:35 AM,33.8,28.4,81,29.90,10.0,South,8.1,-,N/A,,Clear,180,2014-01-12 07:35:00
1:55 AM,33.8,28.4,81,29.89,10.0,SSE,6.9,-,N/A,,Clear,160,2014-01-12 07:55:00
2:15 AM,32.0,28.4,87,29.89,10.0,South,6.9,-,N/A,,Clear,170,2014-01-12 08:15:00
2:35 AM,32.0,28.4,87,29.88,10.0,SSE,9.2,-,N/A,,Clear,160,2014-01-12 08:35:00
2:55 AM,33.8,28.4,81,29.88,10.0,South,8.1,-,N/A,,Clear,170,2014-01-12 08:55:00
3:15 AM,33.8,28.4,81,29.87,10.0,South,5.8,-,N/A,,Clear,180,2014-01-12 09:15:00
3:35 AM,32.0,28.4,87,29.86,10.0,South,8.1,-,N/A,,Clear,170,2014-01-12 09:35:00
3:55 AM,33.8,28.4,81,29.86,10.0,South,6.9,-,N/A,,Clear,170,2014-01-12 09:55:00
4:15 AM,32.0,28.4,87,29.85,10.0,South,8.1,-,N/A,,Clear,170,2014-01-12 10:15:00
4:35 AM,33.8,28.4,81,29.83,10.0,South,8.1,-,N/A,,Clear,170,2014-01-12 10:35:00
4:55 AM,37.4,30.2,75,29.82,10.0,South,13.8,-,N/A,,Clear,180,2014-01-12 10:55:00
5:15 AM,37.4,28.4,70,29.80,10.0,South,13.8,19.6,N/A,,Clear,170,2014-01-12 11:15:00
5:35 AM,37.4,28.4,70,29.80,10.0,South,13.8,-,N/A,,Clear,170,2014-01-12 11:35:00
5:55 AM,37.4,28.4,70,29.79,10.0,South,13.8,-,N/A,,Clear,170,2014-01-12 11:55:00
6:15 AM,37.4,28.4,70,29.78,10.0,South,15.0,-,N/A,,Clear,170,2014-01-12 12:15:00
6:35 AM,41.0,28.4,61,29.78,10.0,South,18.4,23.0,N/A,,Clear,180,2014-01-12 12:35:00
6:55 AM,41.0,28.4,61,29.76,10.0,South,20.7,26.5,N/A,,Clear,180,2014-01-12 12:55:00
7:15 AM,41.0,28.4,61,29.75,10.0,South,21.9,28.8,N/A,,Clear,170,2014-01-12 13:15:00
7:35 AM,41.0,28.4,61,29.75,10.0,South,21.9,29.9,N/A,,Clear,180,2014-01-12 13:35:00
7:55 AM,41.0,28.4,61,29.74,10.0,South,21.9,28.8,N/A,,Clear,180,2014-01-12 13:55:00
8:15 AM,42.8,28.4,57,29.74,10.0,South,21.9,31.1,N/A,,Clear,180,2014-01-12 14:15:00
8:35 AM,42.8,28.4,57,29.72,10.0,South,23.0,29.9,N/A,,Clear,180,2014-01-12 14:35:00
8:55 AM,44.6,28.4,53,29.72,10.0,South,19.6,32.2,N/A,,Clear,180,2014-01-12 14:55:00
9:15 AM,44.6,30.2,57,29.72,10.0,South,25.3,31.1,N/A,,Clear,180,2014-01-12 15:15:00
9:35 AM,46.4,30.2,53,29.71,10.0,South,23.0,29.9,N/A,,Clear,180,2014-01-12 15:35:00
9:55 AM,50.0,32.0,50,29.72,10.0,South,21.9,26.5,N/A,,Clear,190,2014-01-12 15:55:00
10:15 AM,51.8,32.0,47,29.71,10.0,South,20.7,-,N/A,,Clear,190,2014-01-12 16:15:00
10:35 AM,53.6,32.0,44,29.70,10.0,South,19.6,26.5,N/A,,Clear,190,2014-01-12 16:35:00
10:55 AM,55.4,32.0,41,29.69,10.0,South,26.5,31.1,N/A,,Clear,190,2014-01-12 16:55:00
11:15 AM,57.2,32.0,38,29.67,10.0,South,25.3,28.8,N/A,,Clear,190,2014-01-12 17:15:00
11:35 AM,59.0,32.0,36,29.67,10.0,South,21.9,27.6,N/A,,Clear,180,2014-01-12 17:35:00
11:55 AM,60.8,33.8,36,29.64,10.0,South,18.4,26.5,N/A,,Clear,190,2014-01-12 17:55:00
12:15 PM,62.6,32.0,32,29.62,10.0,SSW,26.5,33.4,N/A,,Clear,200,2014-01-12 18:15:00
12:35 PM,62.6,32.0,32,29.60,10.0,South,26.5,31.1,N/A,,Clear,190,2014-01-12 18:35:00
12:55 PM,62.6,32.0,32,29.58,10.0,SSW,24.2,35.7,N/A,,Clear,200,2014-01-12 18:55:00
1:15 PM,64.4,32.0,30,29.57,10.0,South,26.5,34.5,N/A,,Clear,190,2014-01-12 19:15:00
1:35 PM,64.4,32.0,30,29.56,10.0,SSW,24.2,33.4,N/A,,Clear,200,2014-01-12 19:35:00
1:55 PM,66.2,32.0,28,29.55,10.0,SSW,34.5,42.6,N/A,,Clear,200,2014-01-12 19:55:00
2:15 PM,66.2,32.0,28,29.53,10.0,SSW,29.9,41.4,N/A,,Clear,200,2014-01-12 20:15:00
2:35 PM,68.0,32.0,26,29.53,10.0,South,31.1,39.1,N/A,,Clear,190,2014-01-12 20:35:00
2:55 PM,68.0,32.0,26,29.52,10.0,SSW,31.1,40.3,N/A,,Clear,200,2014-01-12 20:55:00
3:15 PM,68.0,32.0,26,29.52,10.0,SSW,23.0,35.7,N/A,,Clear,200,2014-01-12 21:15:00
3:35 PM,68.0,32.0,26,29.52,10.0,SSW,28.8,40.3,N/A,,Clear,200,2014-01-12 21:35:00
3:55 PM,68.0,32.0,26,29.51,10.0,SSW,29.9,36.8,N/A,,Clear,200,2014-01-12 21:55:00
4:15 PM,66.2,32.0,28,29.52,10.0,SSW,21.9,31.1,N/A,,Clear,200,2014-01-12 22:15:00
4:35 PM,66.2,32.0,28,29.53,10.0,South,23.0,26.5,N/A,,Clear,190,2014-01-12 22:35:00
4:55 PM,64.4,32.0,30,29.53,10.0,SSW,20.7,31.1,N/A,,Clear,200,2014-01-12 22:55:00
5:15 PM,64.4,32.0,30,29.55,10.0,SSW,19.6,24.2,N/A,,Clear,200,2014-01-12 23:15:00
5:35 PM,60.8,32.0,34,29.55,10.0,South,15.0,-,N/A,,Clear,190,2014-01-12 23:35:00
5:55 PM,60.8,32.0,34,29.56,10.0,South,17.3,23.0,N/A,,Clear,190,2014-01-12 23:55:00
6:15 PM,59.0,33.8,39,29.56,10.0,South,13.8,-,N/A,,Clear,180,2014-01-13 00:15:00
6:35 PM,59.0,32.0,36,29.56,10.0,South,18.4,-,N/A,,Clear,180,2014-01-13 00:35:00
6:55 PM,57.2,32.0,38,29.56,10.0,South,17.3,-,N/A,,Clear,190,2014-01-13 00:55:00
7:15 PM,57.2,32.0,38,29.56,10.0,South,15.0,-,N/A,,Clear,180,2014-01-13 01:15:00
7:35 PM,59.0,32.0,36,29.56,10.0,South,18.4,25.3,N/A,,Clear,190,2014-01-13 01:35:00
7:55 PM,59.0,33.8,39,29.55,10.0,South,21.9,26.5,N/A,,Clear,190,2014-01-13 01:55:00
8:15 PM,59.0,33.8,39,29.55,10.0,South,18.4,32.2,N/A,,Clear,190,2014-01-13 02:15:00
8:35 PM,57.2,33.8,41,29.55,10.0,South,23.0,28.8,N/A,,Clear,180,2014-01-13 02:35:00
8:55 PM,55.4,33.8,44,29.55,10.0,South,18.4,26.5,N/A,,Clear,190,2014-01-13 02:55:00
9:15 PM,55.4,35.6,47,29.59,10.0,SW,13.8,-,N/A,,Clear,220,2014-01-13 03:15:00
9:35 PM,55.4,35.6,47,29.61,10.0,WSW,11.5,-,N/A,,Clear,240,2014-01-13 03:35:00
9:55 PM,51.8,35.6,54,29.61,10.0,SSW,8.1,-,N/A,,Clear,200,2014-01-13 03:55:00
10:15 PM,50.0,33.8,54,29.60,10.0,South,5.8,-,N/A,,Clear,180,2014-01-13 04:15:00
10:35 PM,48.2,33.8,58,29.64,10.0,WNW,13.8,17.3,N/A,,Clear,300,2014-01-13 04:35:00
10:55 PM,48.2,32.0,54,29.65,10.0,NNW,20.7,33.4,N/A,,Clear,330,2014-01-13 04:55:00
11:15 PM,46.4,32.0,57,29.67,10.0,NNW,19.6,26.5,N/A,,Clear,330,2014-01-13 05:15:00
11:35 PM,44.6,32.0,61,29.67,10.0,NNW,18.4,21.9,N/A,,Clear,330,2014-01-13 05:35:00
11:55 PM,44.6,32.0,61,29.69,10.0,NNW,17.3,23.0,N/A,,Clear,340,2014-01-13 05:55:00